Regional Weather Roundup
Issued by NWS

Home | Current Version | Previous Version | Text Only | Print | Product List | Glossary On
Versions: 1 2 3 4 5 6 7 8 9 10 11 12 13 14 15 16 17 18 19 20 21 22 23 24 25 26 27 28 29 30 31 32 33 34 35 36 37 38 39 40 41 42 43 44 45 46 47 48 49 50
000
ASUS44 KFWD 031615
RWRTX
NORTH TEXAS HOURLY WEATHER ROUNDUP
NATIONAL WEATHER SERVICE FORT WORTH TX
1000 AM CST SAT DEC 03 2016

NOTE: "FAIR" INDICATES FEW OR NO CLOUDS BELOW 12,000 FEET WITH NO
SIGNIFICANT WEATHER AND/OR OBSTRUCTIONS TO VISIBILITY.

TXZ118-119-031700-
DALLAS/FORT WORTH METROPLEX

CITY           SKY/WX    TMP DP  RH WIND       PRES   REMARKS
DFW AIRPORT    LGT RAIN  49  45  86 E13       30.07F
DALLAS LOVE    CLOUDY    49  46  90 E12       30.08F
FTW MEACHAM    CLOUDY    49  45  86 E14       30.09R
DAL-EXECUTIVE  CLOUDY    49  47  93 E13       30.06S
FTW-ALLIANCE   CLOUDY    48  46  93 E12       30.09S
FTW-NAS-JRB    CLOUDY    49  46  90 E8        30.10R
ARLINGTON      LGT RAIN  49  46  90 NE9       30.08S
GRAND PRAIRIE  CLOUDY    48  48 100 NE8       30.10R
MESQUITE       CLOUDY    48  46  93 NE10      30.08F
LANCASTER      CLOUDY    49  46  90 E12G20    30.08S
$$

TXZ091>094-102>105-117-120-121-131>134-031700-
NORTH CENTRAL TEXAS

CITY           SKY/WX    TMP DP  RH WIND       PRES   REMARKS
SHRMAN/DENISON DRIZZLE   46  46 100 E15       30.14F
GAINESVILLE    CLOUDY    46  43  91 E13G21    30.14F WCI  40
BOWIE          LGT RAIN  46  45  95 NE3       30.14R
BRIDGEPORT     LGT RAIN  46  46 100 NE5       30.13R
DECATUR        LGT RAIN  45  45  99 E13       30.10R WCI  39
DENTON         LGT RAIN  47  46  97 E13       30.10S
MCKINNEY       LGT RAIN  47  46  97 E13G22    30.09F
BONHAM         LGT RAIN  45  43  93 E17G26    30.14F WCI  37
GREENVILLE     LGT RAIN  46  45  93 E14G22    30.08F
ROCKWALL       CLOUDY    47  47  99 E12G22    30.08F
TERRELL        LGT RAIN  48  46  93 E16G22    30.07F
WAXAHACHIE     CLOUDY    47  47 100 E9G17     30.08R
CLEBURNE       CLOUDY    48  48 100 NE10      30.09R
GRANBURY       CLOUDY    50  47  92 NE5       30.11R
$$

TXZ083>090-098>101-113>116-127>130-139>142-154-155-031700-
WESTERN NORTH TEXAS

CITY           SKY/WX    TMP DP  RH WIND       PRES   REMARKS
WICHITA FALLS  LGT RAIN  45  43  93 N15       30.16F FOG     WCI  38
WF-KICKAPOO    RAIN      45  44  97 N13       30.18S WCI  38
VERNON         CLOUDY    45  41  86 E14       30.17F WCI  39
ABILENE        LGT RAIN  45  45 100 NE8       30.10R
ABILENE-DYESS  CLOUDY    45  45 100 MISG      30.07
CISCO          LGT RAIN  45  45 100 NE9       30.09R WCI  40
BRECKENRIDGE   RAIN      47  47  97 NE3       30.11R
GRAHAM         RAIN      46  46 100 NE7       30.10S
MINERAL WELLS  LGT RAIN  48  45  89 NE8       30.08R FOG
STEPHENVILLE   CLOUDY    47  45  93 E6        30.12R
COMANCHE       RAIN      47  47 100 E8        30.06F
BROWNWOOD      CLOUDY    46  46 100 NE5       30.06S
COLEMAN        CLOUDY    47  45  93 NE7       30.08S
$$

TXZ143>147-156>162-174-175-031700-
CENTRAL TEXAS

CITY           SKY/WX    TMP DP  RH WIND       PRES   REMARKS
WACO           LGT RAIN  50  49  96 NE8       30.06R
WACO-TSTC      RAIN      50  48  93 NE10      30.06R
WACO-MCGREGOR  LGT RAIN  50  48  93 NE8       30.07R
HILLSBORO      LGT RAIN  49  48  95 NE13G21   30.05R
CORSICANA      LGT RAIN  51  48  89 E16G26    30.06F
MEXIA          CLOUDY    49  47  94 E15G21    30.02R
HEARNE         LGT RAIN  50  48  93 NE10      30.03R
CAMERON        LGT RAIN  51  49  93 NE9       30.02S
TEMPLE         RAIN      49  48  97 N8        30.06R
KILLEEN        LGT RAIN  48  47  98 NE8       30.04R
KILLEEN-SKYLRK RAIN      49  48  97 NE7       30.05R
FORT HOOD      LGT RAIN  48  48 100 E7        30.02S VSB 3/4
GATESVILLE     CLOUDY    48  48 100 E8        30.08R
HAMILTON       LGT RAIN  48  48 100 E5        30.08R
LAMPASAS       CLOUDY    48  47  97 NE8       30.02F
$$

TXZ095>097-106>112-122>126-135>138-148>153-164>167-031700-
EAST TEXAS

CITY           SKY/WX    TMP DP  RH WIND       PRES   REMARKS
PARIS          CLOUDY    46  43  87 E15G24    30.17S
SULPHUR SPRNGS LGT RAIN  47  46  97 E15G22    30.14F
MOUNT PLEASANT CLOUDY    47  47 100 E12G22    30.18F
GILMER         RAIN      46  46  97 E12G22    30.13F
MINEOLA        RAIN      48  46  93 E7        30.11F FOG
TYLER          RAIN      48  46  93 E16       30.10F
LONGVIEW       RAIN      48  47  96 NE9       30.12R FOG
MARSHALL       CLOUDY    45  43  93 NE5       30.16R
ATHENS         LGT RAIN  46  46 100 E12G20    30.05F
PALESTINE      LGT SNOW  48  48  98 E15       30.06F
JACKSONVILLE   RAIN      47  47 100 NE12      30.10S
HENDERSON      RAIN      47  47 100 NE8       30.14R
CENTER         HVY RAIN  48  47  96 E13G25    30.12R
NACOGDOCHES    CLOUDY    46  45  93 E16G29    30.07S WCI  40
LUFKIN         HVY RAIN  47  46  97 NE10      30.07S FOG
$$

SUPPLEMENTAL OBSERVATIONS (CENTRAL)

CITY           SKY/WX    TMP DP  RH WIND       PRES   REMARKS
DENISON DAM      N/A     46  43  87 E8          N/A
CADDO GRASSLND   N/A     46  43  87 E7G15       N/A
PAT MAYSE LAKE   N/A     45  43  93 NE9         N/A  WCI  40
GREENVILLE       N/A     46  43  87 E16G24      N/A  WCI  40
LAKE LIMESTONE   N/A     50  45  81 E12G23      N/A
MCGREGOR         N/A     48  46  93 NE8G16      N/A
TEMPLE           N/A     50  46  87 NE9G18      N/A
$$

SUPPLEMENTAL OBSERVATIONS (WEST)

CITY           SKY/WX    TMP DP  RH WIND       PRES   REMARKS
MILLERS CREEK    N/A     45  43  93 NE13        N/A  WCI  38
POSSUM KINGDOM   N/A     46  45  93 NE7         N/A
LBJ GRASSLAND    N/A     46  45  93 CALM        N/A
GRANBURY         N/A     48  43  81 E7          N/A
COMANCHE         N/A     46  45  93 E12         N/A
HAMBY            N/A     45  43  93 E10         N/A  WCI  39
$$

SUPPLEMENTAL OBSERVATIONS (EAST)

CITY           SKY/WX    TMP DP  RH WIND       PRES   REMARKS
CLARKSVILLE      N/A     46  43  87 E12G20      N/A
TEXARKANA        N/A     46  43  87 NE7G16      N/A
LINDEN           N/A     46  43  87 E9G17       N/A
CADDO LAKE       N/A     46  45  93 E5          N/A
GILMER           N/A     46  43  87 E10         N/A
HENDERSON        N/A     48  45  87 NE7         N/A
LUFKIN           N/A     48  45  87 MISG        N/A
N SABINE NF      N/A     46  45  93 MISG        N/A
S SABINE NF      N/A     46  45  93 VRB7G16     N/A
$$

SUPPLEMENTAL OBSERVATIONS ARE A COLLECTION OF AUTOMATED INSTRUMENTS
THAT ARE MAINTAINED BY A VARIETY OF FEDERAL AND STATE AGENCIES.
CERTAIN ELEMENTS...SUCH AS HUMIDITY VALUES AND SUSTAINED WIND
SPEEDS...MAY BE APPROXIMATED.




USA.gov is the U.S. government's official web portal to all federal, state and local government web resources and services.